Location: Asheville, NC
(35.6000°N, 82.5500°W)
Time: 17:07:14
(UTC-04:00)

YUBILEINY - Pass Details

Date: 14 March 2018
Orbit: 1479 x 1508 km, 82.5° (Epoch: 18 June)

Event Time Altitude Azimuth Distance (km) Brightness Sun altitude
Rises 04:00:22 0° 13° (NNE) 4,615 ? -43.6°
Reaches altitude 10° 04:06:48 10° 47° (NE) 3,637 ? -42.5°
Maximum altitude 04:08:51 11° 62° (ENE) 3,566 ? -42.2°
Drops below altitude 10° 04:10:55 10° 76° (ENE) 3,639 ? -41.8°
Sets 04:17:16 0° 110° (ESE) 4,622 ? -40.7°
